Waskish, MN

9:28 PM CST on February 21, 2017 (GMT -0600)
Waskish Municipal

Weather History for KVWU - October, 2012

Change the Weather History Date:

Saturday, October 27, 2012

  Actual Average (KBDE) Record (KBDE)
Temperature  
Mean Temperature 30 °F -  
Max Temperature 33 °F 51 °F 75 °F (1989)
Min Temperature 26 °F 32 °F 11 °F (1976)
Degree Days  
Heating Degree Days 36    
Moisture  
Dew Point 18 °F    
Average Humidity 62    
Maximum Humidity 75    
Minimum Humidity 41    
Precipitation  
Precipitation 0.00 in - - ()
Sea Level Pressure  
Sea Level Pressure 30.26 in    
Wind  
Wind Speed 10 mph (West)    
Max Wind Speed 16 mph    
Max Gust Speed 22 mph    
Visibility 10 miles    
Events      
Averages and records for this station are not official NWS values.
T = Trace of Precipitation, MM = Missing Value Source: NWS Daily Summary

Daily Weather History Graph

Daily Weather History Graph

Search for Another Location

Airport or City:

Trip Planner

Search our weather history database for the weather conditions in past years. The results will help you decide how hot, cold, wet, or windy it might be!

Date:

Astronomy

Oct. 27, 2012 Rise Set
Actual Time 7:56 AM CDT 6:06 PM CDT
Civil Twilight 7:24 AM CDT 6:38 PM CDT
Nautical Twilight 6:47 AM CDT 7:15 PM CDT
Astronomical Twilight 6:11 AM CDT 7:51 PM CDT
Moon 4:57 PM CDT (10/27) 5:45 AM CDT (10/27)
Length of Visible Light 11h 14m
Length of Day
10h 10m
Waxing Gibbous, 96% of the Moon is Illuminated
Oct 27
Waxing Gibbous
Oct 29
Full
Nov 6
Last Quarter
Nov 13
New
Nov 20
First Quarter

Hourly Weather History & Observations

Time (CDT) Temp. Windchill Dew Point Humidity Pressure Visibility Wind Dir Wind Speed Gust Speed Precip Events Conditions
12:11 AM 30.2 °F 20.2 °F 21.2 °F 69% 30.21 in 10.0 mi West 12.7 mph 18.4 mph N/A   Mostly Cloudy
12:32 AM 30.2 °F 21.3 °F 21.2 °F 69% 30.21 in 10.0 mi WSW 10.4 mph 17.3 mph N/A   Overcast
12:52 AM 30.2 °F 19.8 °F 21.2 °F 69% 30.21 in 10.0 mi West 13.8 mph 18.4 mph N/A   Overcast
1:11 AM 32.0 °F 22.5 °F 21.2 °F 64% 30.21 in 10.0 mi West 12.7 mph 17.3 mph N/A   Overcast
1:32 AM 32.0 °F 21.6 °F 23.0 °F 69% 30.21 in 10.0 mi West 15.0 mph 20.7 mph N/A   Overcast
1:52 AM 30.2 °F 19.3 °F 23.0 °F 75% 30.21 in 10.0 mi West 15.0 mph 19.6 mph N/A   Overcast
2:11 AM 30.2 °F 18.9 °F 23.0 °F 75% 30.21 in 10.0 mi West 16.1 mph 21.9 mph N/A   Overcast
2:32 AM 30.2 °F 20.2 °F 23.0 °F 75% 30.22 in 10.0 mi West 12.7 mph 18.4 mph N/A   Overcast
2:52 AM 30.2 °F 20.8 °F 23.0 °F 75% 30.22 in 10.0 mi West 11.5 mph 17.3 mph N/A   Overcast
3:11 AM 30.2 °F 21.9 °F 23.0 °F 75% 30.22 in 10.0 mi West 9.2 mph - N/A   Overcast
3:32 AM 30.2 °F 20.8 °F 21.2 °F 69% 30.22 in 10.0 mi West 11.5 mph 16.1 mph N/A   Overcast
3:52 AM 30.2 °F 20.8 °F 21.2 °F 69% 30.22 in 10.0 mi West 11.5 mph 16.1 mph N/A   Overcast
4:11 AM 30.2 °F 22.6 °F 19.4 °F 64% 30.22 in 10.0 mi West 8.1 mph - N/A   Overcast
4:32 AM 30.2 °F 21.3 °F 21.2 °F 69% 30.22 in 10.0 mi West 10.4 mph - N/A   Overcast
4:51 AM 30.2 °F 21.9 °F 21.2 °F 69% 30.22 in 10.0 mi West 9.2 mph - N/A   Overcast
5:11 AM 30.2 °F 22.6 °F 21.2 °F 69% 30.23 in 10.0 mi West 8.1 mph - N/A   Overcast
5:32 AM 30.2 °F 22.6 °F 21.2 °F 69% 30.23 in 10.0 mi West 8.1 mph - N/A   Overcast
6:11 AM 28.4 °F 20.4 °F 21.2 °F 74% 30.24 in 10.0 mi West 8.1 mph - N/A   Mostly Cloudy
6:32 AM 28.4 °F 19.7 °F 21.2 °F 74% 30.24 in 10.0 mi West 9.2 mph - N/A   Mostly Cloudy
6:51 AM 28.4 °F 17.5 °F 19.4 °F 69% 30.25 in 10.0 mi West 13.8 mph - N/A   Scattered Clouds
7:11 AM 28.4 °F 19.1 °F 19.4 °F 69% 30.25 in 10.0 mi West 10.4 mph 17.3 mph N/A   Mostly Cloudy
7:32 AM 28.4 °F 18.0 °F 19.4 °F 69% 30.25 in 10.0 mi West 12.7 mph - N/A   Overcast
7:51 AM 28.4 °F 17.5 °F 19.4 °F 69% 30.25 in 10.0 mi West 13.8 mph 17.3 mph N/A   Mostly Cloudy
8:11 AM 28.4 °F 18.0 °F 17.6 °F 64% 30.26 in 10.0 mi WSW 12.7 mph - N/A   Clear
8:32 AM 28.4 °F 18.5 °F 15.8 °F 59% 30.27 in 10.0 mi West 11.5 mph - N/A   Clear
8:51 AM 28.4 °F 18.5 °F 17.6 °F 64% 30.27 in 10.0 mi West 11.5 mph - N/A   Scattered Clouds
9:12 AM 30.2 °F 20.8 °F 15.8 °F 55% 30.28 in 10.0 mi West 11.5 mph 17.3 mph N/A   Scattered Clouds
9:32 AM 30.2 °F 20.8 °F 14.0 °F 51% 30.28 in 10.0 mi West 11.5 mph 16.1 mph N/A   Clear
9:51 AM 30.2 °F 22.6 °F 14.0 °F 51% 30.28 in 10.0 mi West 8.1 mph - N/A   Clear
10:11 AM 32.0 °F 24.2 °F 15.8 °F 51% 30.28 in 10.0 mi West 9.2 mph - N/A   Clear
10:32 AM 33.8 °F 26.4 °F 15.8 °F 48% 30.28 in 10.0 mi West 9.2 mph - N/A   Clear
10:51 AM 33.8 °F 26.4 °F 14.0 °F 44% 30.28 in 10.0 mi West 9.2 mph - N/A   Clear
11:12 AM 33.8 °F 26.4 °F 15.8 °F 48% 30.28 in 10.0 mi West 9.2 mph - N/A   Clear
11:32 AM 33.8 °F 27.0 °F 15.8 °F 48% 30.29 in 10.0 mi WSW 8.1 mph - N/A   Scattered Clouds
12:12 PM 33.8 °F 26.4 °F 12.2 °F 41% 30.28 in 10.0 mi West 9.2 mph - N/A   Mostly Cloudy
12:32 PM 33.8 °F 27.0 °F 14.0 °F 44% 30.28 in 10.0 mi WSW 8.1 mph - N/A   Mostly Cloudy
12:51 PM 33.8 °F 25.8 °F 15.8 °F 48% 30.28 in 10.0 mi SW 10.4 mph - N/A   Overcast
1:12 PM 33.8 °F 27.0 °F 15.8 °F 48% 30.28 in 10.0 mi WSW 8.1 mph - N/A   Overcast
1:32 PM 33.8 °F 29.6 °F 15.8 °F 48% 30.27 in 10.0 mi West 4.6 mph - N/A   Overcast
1:51 PM 33.8 °F 27.7 °F 15.8 °F 48% 30.27 in 10.0 mi WSW 6.9 mph - N/A   Overcast
2:12 PM 33.8 °F 29.6 °F 15.8 °F 48% 30.27 in 10.0 mi WSW 4.6 mph - N/A   Overcast
2:32 PM 32.0 °F 25.6 °F 17.6 °F 55% 30.26 in 10.0 mi SW 6.9 mph - N/A   Overcast
2:51 PM 32.0 °F 24.8 °F 19.4 °F 60% 30.26 in 10.0 mi SW 8.1 mph - N/A   Overcast
3:12 PM 32.0 °F 22.5 °F 19.4 °F 60% 30.26 in 10.0 mi WSW 12.7 mph 16.1 mph N/A   Overcast
3:31 PM 33.8 °F 26.4 °F 19.4 °F 56% 30.26 in 10.0 mi WSW 9.2 mph 18.4 mph N/A   Overcast
3:51 PM 33.8 °F 25.8 °F 19.4 °F 56% 30.26 in 10.0 mi WSW 10.4 mph - N/A   Overcast
4:12 PM 32.0 °F 24.8 °F 19.4 °F 60% 30.26 in 10.0 mi WSW 8.1 mph - N/A   Overcast
4:31 PM 32.0 °F 23.6 °F 19.4 °F 60% 30.27 in 10.0 mi West 10.4 mph - N/A   Overcast
4:51 PM 32.0 °F 24.2 °F 19.4 °F 60% 30.26 in 10.0 mi West 9.2 mph - N/A   Overcast
5:12 PM 32.0 °F 23.6 °F 19.4 °F 60% 30.27 in 10.0 mi West 10.4 mph - N/A   Overcast
5:31 PM 30.2 °F 21.3 °F 19.4 °F 64% 30.27 in 10.0 mi West 10.4 mph - N/A   Overcast
5:51 PM 30.2 °F 20.8 °F 17.6 °F 60% 30.27 in 10.0 mi WSW 11.5 mph - N/A   Overcast
6:12 PM 30.2 °F 21.9 °F 17.6 °F 60% 30.27 in 10.0 mi WSW 9.2 mph - N/A   Mostly Cloudy
6:31 PM 30.2 °F 22.6 °F 17.6 °F 60% 30.27 in 10.0 mi West 8.1 mph - N/A   Scattered Clouds
6:51 PM 30.2 °F 22.6 °F 17.6 °F 60% 30.28 in 10.0 mi West 8.1 mph - N/A   Scattered Clouds
7:12 PM 30.2 °F 24.3 °F 19.4 °F 64% 30.28 in 10.0 mi NW 5.8 mph - N/A   Mostly Cloudy
7:31 PM 28.4 °F 21.2 °F 17.6 °F 64% 30.29 in 10.0 mi WNW 6.9 mph - N/A   Mostly Cloudy
7:51 PM 28.4 °F 21.2 °F 17.6 °F 64% 30.29 in 10.0 mi NW 6.9 mph - N/A   Overcast
8:12 PM 28.4 °F 23.3 °F 15.8 °F 59% 30.29 in 10.0 mi NW 4.6 mph - N/A   Overcast
8:31 PM 28.4 °F 23.3 °F 15.8 °F 59% 30.30 in 10.0 mi NW 4.6 mph - N/A   Overcast
8:51 PM 28.4 °F - 15.8 °F 59% 30.30 in 10.0 mi Calm Calm - N/A   Overcast
9:12 PM 26.6 °F - 15.8 °F 64% 30.30 in 10.0 mi Calm Calm - N/A   Mostly Cloudy
9:51 PM 26.6 °F - 17.6 °F 69% 30.31 in 10.0 mi Calm Calm - N/A   Overcast
10:12 PM 26.6 °F - 17.6 °F 69% 30.31 in 10.0 mi Calm Calm - N/A   Overcast
10:31 PM 26.6 °F - 17.6 °F 69% 30.31 in 10.0 mi Calm Calm - N/A   Overcast
10:52 PM 26.6 °F - 17.6 °F 69% 30.31 in 10.0 mi Calm Calm - N/A   Overcast
11:12 PM 26.6 °F - 17.6 °F 69% 30.32 in 10.0 mi Calm Calm - N/A   Overcast
11:52 PM 26.6 °F - 17.6 °F 69% 30.32 in 10.0 mi Calm Calm - N/A   Overcast